Tracking 21474 objects as of 25-Sep-2020
HD Live streaming from Space Station
objects crossing your sky now

USA 12

Track USA 12 now!
USA 12 is classified as:


NORAD ID: 16117
Int'l Code: 1985-092C
Perigee: 36,125.0 km
Apogee: 36,190.7 km
Inclination: 15.2 °
Period: 1,454.7 minutes
Semi major axis: 42528 km
RCS: Unknown
Launch date: October 3, 1985
Source: United States (US)
Launch site: AIR FORCE EASTERN TEST RANGE (AFETR)
aabbcc
Your satellite tracking list
Your tracking list is empty




NASA's NSSDC Master Catalog

Two Line Element Set (TLE):
1 16117U 85092C   20268.89854682 -.00000020 +00000-0 +00000-0 0  9991
2 16117 015.2469 002.5429 0007730 060.2990 348.5814 00.98986924005025
Source of the keplerian elements: McCants